| time (UTC) | temp F | wind direction | speed MPH | gust MPH | rain 1hr in | rain 24hr in | rain mn in | humidity % | barometer mb |
| 20260901083020 | 70 | 91 | 1.0 | 3.0 | 0.00 | 0.15 | 0.00 | 72 | |
| 20260901082024 | 69 | 151 | 1.0 | 4.0 | 0.00 | 0.15 | 0.00 | 75 | |
| 20260901081022 | 67 | 324 | 2.0 | 4.0 | 0.00 | 0.15 | 0.00 | 77 | |
| 20260901080030 | 68 | 97 | 1.0 | 3.0 | 0.00 | 0.15 | 0.00 | 77 | |
| 20260901075020 | 66 | 234 | 1.0 | 6.0 | 0.00 | 0.15 | 0.00 | 80 | |
| 20260901074028 | 65 | 70 | 1.0 | 4.0 | 0.00 | 0.15 | 0.00 | 81 | |
| 20260901073022 | 65 | 339 | 0.0 | 2.0 | 0.00 | 0.15 | 0.00 | 83 | |
| 20260901072021 | 63 | 84 | 0.0 | 1.0 | 0.00 | 0.15 | 0.00 | 86 | |
| 20260901071020 | 62 | 157 | 0.0 | 1.0 | 0.00 | 0.15 | 0.00 | 88 | |
| 20260901070028 | 61 | 226 | 0.0 | 2.0 | 0.00 | 0.15 | 0.00 | 89 | |
| 20260901065024 | 61 | 159 | 0.0 | 2.0 | 0.00 | 0.15 | 0.00 | 90 | |
| 20260901064028 | 61 | 147 | 0.0 | 2.0 | 0.00 | 0.15 | 0.00 | 91 | |
| 20260901063020 | 60 | 145 | 1.0 | 2.0 | 0.00 | 0.15 | 0.00 | 90 | |
| 20260901062030 | 60 | 219 | 0.0 | 3.0 | 0.00 | 0.15 | 0.00 | 91 | |
| 20260901061020 | 60 | 191 | 1.0 | 3.0 | 0.00 | 0.15 | 0.00 | 91 | |
| 20260901060031 | 60 | 168 | 1.0 | 3.0 | 0.00 | 0.15 | 0.00 | 92 | |
| 20260901055021 | 59 | 145 | 1.0 | 2.0 | 0.00 | 0.15 | 0.00 | 92 | |
| 20260901054028 | 59 | 179 | 1.0 | 3.0 | 0.00 | 0.15 | 0.00 | 92 | |
| 20260901053021 | 59 | 135 | 1.0 | 2.0 | 0.00 | 0.15 | 0.00 | 93 | |
| 20260901052020 | 59 | 163 | 1.0 | 3.0 | 0.00 | 0.15 | 0.00 | 93 | |
| 20260901051020 | 59 | 154 | 1.0 | 3.0 | 0.00 | 0.15 | 0.00 | 94 | |
| 20260901050028 | 58 | 139 | 1.0 | 2.0 | 0.00 | 0.15 | 0.00 | 94 | |
| 20260901045020 | 58 | 137 | 0.0 | 2.0 | 0.00 | 0.15 | 0.00 | 95 | |
| 20260901044028 | 57 | 180 | 0.0 | 4.0 | 0.00 | 0.15 | 0.00 | 94 | |
| 20260901043020 | 57 | 165 | 0.0 | 2.0 | 0.00 | 0.15 | 0.00 | 94 | |
| 20260901042028 | 57 | 0.0 | 0.0 | 0.00 | 0.15 | 0.00 | 94 | ||
| 20260901041020 | 57 | 151 | 0.0 | 2.0 | 0.00 | 0.15 | 0.00 | 94 | |
| 20260901040028 | 58 | 94 | 0.0 | 2.0 | 0.00 | 0.15 | 0.00 | 93 | |
| 20260901035020 | 58 | 0.0 | 0.0 | 0.00 | 0.15 | 0.00 | 92 | ||
| 20260901034029 | 59 | 340 | 0.0 | 2.0 | 0.00 | 0.15 | 0.00 | 92 | |
| 20260901033021 | 59 | 337 | 1.0 | 2.0 | 0.00 | 0.15 | 0.00 | 92 | |
| 20260901032028 | 58 | 345 | 0.0 | 2.0 | 0.00 | 0.15 | 0.00 | 93 | |
| 20260901031021 | 59 | 351 | 0.0 | 2.0 | 0.00 | 0.15 | 0.00 | 93 | |
| 20260901030025 | 58 | 78 | 0.0 | 3.0 | 0.00 | 0.15 | 0.00 | 94 | |
| 20260901025020 | 58 | 0.0 | 0.0 | 0.00 | 0.15 | 0.00 | 94 | ||
| 20260901024028 | 58 | 158 | 0.0 | 2.0 | 0.00 | 0.15 | 0.00 | 94 | |
| 20260901023020 | 58 | 350 | 0.0 | 1.0 | 0.00 | 0.15 | 0.00 | 94 | |
| 20260901022028 | 58 | 57 | 0.0 | 1.0 | 0.00 | 0.15 | 0.00 | 94 | |
| 20260901021022 | 58 | 43 | 0.0 | 4.0 | 0.00 | 0.15 | 0.00 | 93 | |
| 20260901020024 | 58 | 0.0 | 0.0 | 0.00 | 0.15 | 0.00 | 93 | ||
| 20260901015024 | 59 | 0.0 | 0.0 | 0.00 | 0.15 | 0.00 | 92 | ||
| 20260901014028 | 59 | 0.0 | 0.0 | 0.00 | 0.15 | 0.00 | 92 | ||
| 20260901013023 | 59 | 0.0 | 1.0 | 0.00 | 0.15 | 0.00 | 92 | ||
| 20260901012028 | 59 | 0.0 | 0.0 | 0.00 | 0.15 | 0.00 | 92 | ||
| 20260901011024 | 59 | 342 | 0.0 | 1.0 | 0.00 | 0.15 | 0.00 | 92 | |
| 20260901010029 | 60 | 25 | 0.0 | 2.0 | 0.00 | 0.15 | 0.00 | 92 | |
| 20260901005020 | 60 | 140 | 0.0 | 1.0 | 0.00 | 0.15 | 0.00 | 92 | |
| 20260901004030 | 60 | 347 | 0.0 | 2.0 | 0.00 | 0.15 | 0.00 | 91 | |
| 20260901003023 | 59 | 358 | 1.0 | 3.0 | 0.00 | 0.15 | 0.00 | 92 | |
| 20260901002020 | 59 | 0.0 | 0.0 | 0.00 | 0.15 | 0.00 | 91 | ||
| 20260901001022 | 59 | 343 | 0.0 | 1.0 | 0.00 | 0.15 | 0.00 | 91 | |
| 20260901000022 | 60 | 52 | 0.0 | 2.0 | 0.00 | 0.15 | 0.00 | 90 | |
| 20260831235020 | 60 | 346 | 1.0 | 3.0 | 0.00 | 0.15 | 0.00 | 91 | |
| 20260831234029 | 60 | 348 | 0.0 | 1.0 | 0.00 | 0.15 | 0.00 | 91 | |
| 20260831233022 | 60 | 13 | 0.0 | 2.0 | 0.00 | 0.15 | 0.00 | 90 | |
| 20260831232028 | 60 | 51 | 0.0 | 2.0 | 0.00 | 0.15 | 0.00 | 90 | |
| 20260831231020 | 60 | 130 | 0.0 | 2.0 | 0.00 | 0.15 | 0.00 | 90 | |
| 20260831230028 | 60 | 161 | 0.0 | 2.0 | 0.00 | 0.15 | 0.00 | 90 | |
| 20260831225020 | 60 | 82 | 0.0 | 1.0 | 0.00 | 0.15 | 0.00 | 90 | |
| 20260831224028 | 60 | 112 | 0.0 | 3.0 | 0.00 | 0.15 | 0.00 | 89 | |
| 20260831223020 | 60 | 311 | 1.0 | 3.0 | 0.00 | 0.15 | 0.00 | 88 | |
| 20260831222030 | 60 | 355 | 1.0 | 5.0 | 0.00 | 0.15 | 0.00 | 87 | |
| 20260831221020 | 60 | 164 | 1.0 | 4.0 | 0.00 | 0.15 | 0.00 | 88 | |
| 20260831220029 | 60 | 346 | 1.0 | 4.0 | 0.00 | 0.15 | 0.00 | 88 | |
| 20260831215022 | 60 | 95 | 1.0 | 4.0 | 0.00 | 0.15 | 0.15 | 89 | |
| 20260831214030 | 60 | 88 | 1.0 | 4.0 | 0.00 | 0.15 | 0.15 | 89 | |
| 20260831213020 | 59 | 62 | 1.0 | 3.0 | 0.00 | 0.15 | 0.15 | 89 | |
| 20260831212028 | 59 | 86 | 0.0 | 2.0 | 0.00 | 0.15 | 0.15 | 89 | |
| 20260831211020 | 60 | 102 | 0.0 | 3.0 | 0.00 | 0.15 | 0.15 | 89 | |
| 20260831210029 | 60 | 144 | 1.0 | 3.0 | 0.00 | 0.15 | 0.15 | 89 | |
| 20260831205023 | 60 | 219 | 1.0 | 4.0 | 0.00 | 0.15 | 0.15 | 88 | |
| 20260831204028 | 60 | 50 | 1.0 | 4.0 | 0.00 | 0.15 | 0.15 | 87 | |
| 20260831203023 | 60 | 153 | 1.0 | 4.0 | 0.00 | 0.15 | 0.15 | 87 | |
| 20260831202030 | 60 | 147 | 1.0 | 4.0 | 0.00 | 0.15 | 0.15 | 87 | |
| 20260831201021 | 60 | 105 | 1.0 | 3.0 | 0.00 | 0.15 | 0.15 | 89 | |
| 20260831200028 | 59 | 70 | 1.0 | 4.0 | 0.00 | 0.15 | 0.15 | 90 | |
| 20260831195020 | 59 | 159 | 1.0 | 2.0 | 0.00 | 0.15 | 0.15 | 90 | |
| 20260831194030 | 59 | 178 | 0.0 | 2.0 | 0.00 | 0.15 | 0.15 | 89 | |
| 20260831193020 | 60 | 169 | 0.0 | 2.0 | 0.00 | 0.15 | 0.15 | 89 | |
| 20260831192032 | 60 | 164 | 0.0 | 1.0 | 0.00 | 0.15 | 0.15 | 91 | |
| 20260831191020 | 59 | 115 | 0.0 | 2.0 | 0.00 | 0.15 | 0.15 | 91 | |
| 20260831190024 | 59 | 0.0 | 0.0 | 0.00 | 0.15 | 0.15 | 91 | ||
| 20260831185020 | 59 | 34 | 0.0 | 1.0 | 0.00 | 0.15 | 0.15 | 90 | |
| 20260831184022 | 60 | 107 | 0.0 | 1.0 | 0.00 | 0.15 | 0.15 | 90 | |
| 20260831183020 | 60 | 31 | 0.0 | 2.0 | 0.00 | 0.15 | 0.15 | 88 | |
| 20260831182028 | 61 | 145 | 1.0 | 4.0 | 0.00 | 0.15 | 0.15 | 88 | |
| 20260831181022 | 61 | 103 | 1.0 | 4.0 | 0.00 | 0.15 | 0.15 | 88 | |
| 20260831180028 | 61 | 49 | 1.0 | 4.0 | 0.00 | 0.15 | 0.15 | 88 | |
| 20260831175020 | 61 | 91 | 0.0 | 4.0 | 0.00 | 0.15 | 0.15 | 89 | |
| 20260831174028 | 61 | 60 | 0.0 | 2.0 | 0.00 | 0.15 | 0.15 | 90 | |
| 20260831173020 | 61 | 95 | 1.0 | 4.0 | 0.00 | 0.15 | 0.15 | 91 | |
| 20260831172021 | 61 | 62 | 0.0 | 2.0 | 0.00 | 0.15 | 0.15 | 90 | |
| 20260831171020 | 61 | 325 | 1.0 | 2.0 | 0.00 | 0.15 | 0.15 | 90 | |
| 20260831170028 | 61 | 45 | 1.0 | 9.0 | 0.00 | 0.15 | 0.15 | 90 | |
| 20260831165021 | 61 | 274 | 1.0 | 2.0 | 0.01 | 0.15 | 0.15 | 90 | |
| 20260831164029 | 61 | 110 | 1.0 | 4.0 | 0.04 | 0.15 | 0.15 | 89 | |
| 20260831163022 | 62 | 19 | 0.0 | 2.0 | 0.08 | 0.15 | 0.15 | 92 | |
| 20260831162030 | 62 | 344 | 0.0 | 2.0 | 0.08 | 0.15 | 0.15 | 92 | |
| 20260831161022 | 61 | 346 | 3.0 | 5.0 | 0.08 | 0.15 | 0.15 | 91 | |
| 20260831160028 | 62 | 1 | 2.0 | 5.0 | 0.08 | 0.15 | 0.15 | 92 | |
| 20260831155021 | 62 | 38 | 1.0 | 4.0 | 0.07 | 0.14 | 0.14 | 92 | |
| 20260831154028 | 63 | 332 | 3.0 | 4.0 | 0.12 | 0.12 | 0.12 | 90 | |
| 20260831153021 | 63 | 340 | 1.0 | 4.0 | 0.07 | 0.07 | 0.07 | 91 | |
| 20260831152029 | 64 | 341 | 1.0 | 2.0 | 0.07 | 0.07 | 0.07 | 90 | |
| 20260831151020 | 64 | 340 | 2.0 | 3.0 | 0.07 | 0.07 | 0.07 | 90 | |
| 20260831150030 | 64 | 340 | 2.0 | 3.0 | 0.07 | 0.07 | 0.07 | 90 | |
| 20260831145020 | 65 | 351 | 2.0 | 4.0 | 0.07 | 0.07 | 0.07 | 86 | |
| 20260831144030 | 67 | 353 | 2.0 | 8.0 | 0.00 | 0.00 | 0.00 | 75 | |
| 20260831143022 | 68 | 3 | 3.0 | 6.0 | 0.00 | 0.00 | 0.00 | 70 | |
| 20260831142028 | 73 | 20 | 2.0 | 5.0 | 0.00 | 0.00 | 0.00 | 60 | |
| 20260831141020 | 73 | 176 | 2.0 | 7.0 | 0.00 | 0.00 | 0.00 | 59 | |
| 20260831140028 | 73 | 187 | 2.0 | 6.0 | 0.00 | 0.00 | 0.00 | 58 | |
| 20260831135020 | 73 | 121 | 3.0 | 12.0 | 0.00 | 0.00 | 0.00 | 57 | |
| 20260831134028 | 74 | 177 | 3.0 | 10.0 | 0.00 | 0.00 | 0.00 | 56 | |
| 20260831133020 | 75 | 251 | 2.0 | 7.0 | 0.00 | 0.00 | 0.00 | 58 | |
| 20260831132025 | 74 | 244 | 2.0 | 7.0 | 0.00 | 0.00 | 0.00 | 59 | |
| 20260831131020 | 72 | 171 | 1.0 | 5.0 | 0.00 | 0.00 | 0.00 | 60 | |
| 20260831130028 | 71 | 278 | 2.0 | 7.0 | 0.00 | 0.00 | 0.00 | 63 | |
| 20260831125020 | 72 | 233 | 3.0 | 8.0 | 0.00 | 0.00 | 0.00 | 59 | |
| 20260831124028 | 72 | 208 | 2.0 | 7.0 | 0.00 | 0.00 | 0.00 | 59 | |
| 20260831123020 | 73 | 197 | 1.0 | 5.0 | 0.00 | 0.00 | 0.00 | 60 | |
| 20260831122030 | 72 | 165 | 2.0 | 5.0 | 0.00 | 0.00 | 0.00 | 59 | |
| 20260831121021 | 72 | 244 | 2.0 | 8.0 | 0.00 | 0.00 | 0.00 | 60 | |
| 20260831120024 | 72 | 83 | 3.0 | 7.0 | 0.00 | 0.00 | 0.00 | 61 | |
| 20260831115021 | 73 | 132 | 2.0 | 4.0 | 0.00 | 0.00 | 0.00 | 57 | |
| 20260831114031 | 74 | 105 | 2.0 | 4.0 | 0.00 | 0.00 | 0.00 | 55 | |
| 20260831113020 | 74 | 339 | 2.0 | 7.0 | 0.00 | 0.00 | 0.00 | 57 | |
| 20260831112028 | 74 | 171 | 2.0 | 6.0 | 0.00 | 0.00 | 0.00 | 56 | |
| 20260831111023 | 76 | 146 | 2.0 | 7.0 | 0.00 | 0.00 | 0.00 | 57 | |
| 20260831110029 | 75 | 166 | 2.0 | 4.0 | 0.00 | 0.00 | 0.00 | 60 | |
| 20260831105020 | 74 | 245 | 3.0 | 9.0 | 0.00 | 0.00 | 0.00 | 60 | |
| 20260831104030 | 73 | 168 | 2.0 | 8.0 | 0.00 | 0.00 | 0.00 | 64 | |
| 20260831103022 | 73 | 172 | 3.0 | 6.0 | 0.00 | 0.00 | 0.00 | 62 | |
| 20260831102020 | 73 | 111 | 2.0 | 7.0 | 0.00 | 0.00 | 0.00 | 62 | |
| 20260831101021 | 72 | 226 | 2.0 | 7.0 | 0.00 | 0.00 | 0.00 | 66 | |
| 20260831100030 | 70 | 92 | 3.0 | 10.0 | 0.00 | 0.00 | 0.00 | 68 | |
| 20260831095022 | 70 | 102 | 1.0 | 5.0 | 0.00 | 0.00 | 0.00 | 72 | |
| 20260831094029 | 70 | 247 | 2.0 | 8.0 | 0.00 | 0.00 | 0.00 | 69 | |
| 20260831093022 | 73 | 227 | 2.0 | 7.0 | 0.00 | 0.00 | 0.00 | 64 | |
| 20260831092030 | 72 | 158 | 1.0 | 5.0 | 0.00 | 0.00 | 0.00 | 67 | |
| 20260831091020 | 72 | 165 | 2.0 | 7.0 | 0.00 | 0.00 | 0.00 | 68 | |
| 20260831090030 | 72 | 89 | 1.0 | 4.0 | 0.00 | 0.00 | 0.00 | 69 | |
| 20260831085021 | 71 | 202 | 1.0 | 7.0 | 0.00 | 0.00 | 0.00 | 71 | |
| 20260831084030 | 71 | 119 | 2.0 | 5.0 | 0.00 | 0.00 | 0.00 | 73 |